| time (UTC) | temp F | wind direction | speed knots | gust knots | rain 1hr in | rain 24hr in | rain mn in | humidity % | barometer mb |
| 20260506035629 | 75 | 124 | 2.6 | 6.1 | 0.00 | 0.00 | 0.00 | 93 | 1010.1 |
| 20260506035126 | 75 | 166 | 4.3 | 6.1 | 0.00 | 0.00 | 0.00 | 93 | 1009.8 |
| 20260506034623 | 75 | 166 | 2.6 | 7.0 | 0.00 | 0.00 | 0.00 | 93 | 1009.8 |
| 20260506034120 | 75 | 140 | 2.6 | 6.1 | 0.00 | 0.00 | 0.00 | 93 | 1009.8 |
| 20260506033617 | 75 | 174 | 2.6 | 5.2 | 0.00 | 0.00 | 0.00 | 93 | 1009.7 |
| 20260506033114 | 75 | 149 | 1.7 | 4.3 | 0.00 | 0.00 | 0.00 | 93 | 1010.0 |
| 20260506032612 | 75 | 158 | 3.5 | 5.2 | 0.00 | 0.00 | 0.00 | 93 | 1009.7 |
| 20260506032108 | 75 | 121 | 1.7 | 5.2 | 0.00 | 0.00 | 0.00 | 92 | 1009.6 |
| 20260506031605 | 75 | 142 | 2.6 | 5.2 | 0.00 | 0.00 | 0.00 | 93 | 1009.6 |
| 20260506031102 | 75 | 158 | 2.6 | 5.2 | 0.00 | 0.00 | 0.00 | 93 | 1009.5 |
| 20260506030601 | 75 | 166 | 1.7 | 4.3 | 0.00 | 0.00 | 0.00 | 93 | 1009.5 |
| 20260506030057 | 75 | 129 | 1.7 | 4.3 | 0.00 | 0.00 | 0.00 | 93 | 1009.4 |
| 20260506025554 | 75 | 121 | 0.9 | 4.3 | 0.00 | 0.00 | 0.00 | 93 | 1009.4 |
| 20260506025050 | 75 | 149 | 1.7 | 1.7 | 0.00 | 0.00 | 0.00 | 93 | 1009.3 |
| 20260506024548 | 75 | 138 | 0.9 | 2.6 | 0.00 | 0.00 | 0.00 | 92 | 1008.9 |
| 20260506024044 | 75 | 130 | 1.7 | 4.3 | 0.00 | 0.00 | 0.00 | 92 | 1009.1 |
| 20260506023540 | 75 | 160 | 0.9 | 4.3 | 0.00 | 0.00 | 0.00 | 92 | 1008.8 |
| 20260506023038 | 75 | 103 | 0.0 | 1.7 | 0.00 | 0.00 | 0.00 | 92 | 1008.8 |
| 20260506022535 | 75 | 141 | 1.7 | 1.7 | 0.00 | 0.00 | 0.00 | 92 | 1008.9 |
| 20260506022032 | 75 | 127 | 0.0 | 0.9 | 0.00 | 0.00 | 0.00 | 92 | 1008.8 |
| 20260506021530 | 75 | 138 | 0.9 | 2.6 | 0.00 | 0.00 | 0.00 | 91 | 1008.5 |
| 20260506021027 | 76 | 121 | 0.9 | 2.6 | 0.00 | 0.00 | 0.00 | 91 | 1008.4 |
| 20260506020525 | 76 | 165 | 2.6 | 4.3 | 0.00 | 0.00 | 0.00 | 91 | 1008.5 |
| 20260506020022 | 76 | 160 | 1.7 | 1.7 | 0.00 | 0.00 | 0.00 | 91 | 1008.3 |
| 20260506015519 | 76 | 159 | 1.7 | 6.1 | 0.00 | 0.00 | 0.00 | 90 | 1008.3 |
| 20260506015016 | 76 | 131 | 0.9 | 4.3 | 0.00 | 0.00 | 0.00 | 90 | 1008.2 |
| 20260506014514 | 76 | 125 | 1.7 | 2.6 | 0.00 | 0.00 | 0.00 | 90 | 1008.2 |
| 20260506014009 | 76 | 138 | 0.0 | 1.7 | 0.00 | 0.00 | 0.00 | 89 | 1008.3 |
| 20260506013507 | 77 | 124 | 0.9 | 1.7 | 0.00 | 0.00 | 0.00 | 89 | 1008.3 |
| 20260506013004 | 77 | 182 | 1.7 | 2.6 | 0.00 | 0.00 | 0.00 | 88 | 1008.1 |
| 20260506012500 | 77 | 176 | 2.6 | 2.6 | 0.00 | 0.00 | 0.00 | 88 | 1008.0 |
| 20260506011957 | 78 | 124 | 0.9 | 2.6 | 0.00 | 0.00 | 0.00 | 87 | 1008.2 |
| 20260506011454 | 78 | 175 | 1.7 | 2.6 | 0.00 | 0.00 | 0.00 | 86 | 1008.0 |
| 20260506010950 | 78 | 172 | 0.9 | 2.6 | 0.00 | 0.00 | 0.00 | 86 | 1008.0 |
| 20260506010450 | 79 | 207 | 1.7 | 4.3 | 0.00 | 0.00 | 0.00 | 85 | 1008.0 |
| 20260506005945 | 79 | 124 | 0.9 | 2.6 | 0.00 | 0.00 | 0.00 | 84 | 1007.9 |
| 20260506005443 | 79 | 177 | 1.7 | 4.3 | 0.00 | 0.00 | 0.00 | 84 | 1007.9 |
| 20260506004938 | 80 | 154 | 1.7 | 4.3 | 0.00 | 0.00 | 0.00 | 83 | 1007.9 |
| 20260506004437 | 80 | 106 | 0.9 | 8.7 | 0.00 | 0.00 | 0.00 | 83 | 1008.0 |
| 20260506003932 | 80 | 138 | 0.9 | 6.1 | 0.00 | 0.00 | 0.00 | 82 | 1008.2 |
| 20260506003429 | 81 | 125 | 1.7 | 4.3 | 0.00 | 0.00 | 0.00 | 81 | 1008.0 |
| 20260506002926 | 81 | 143 | 2.6 | 4.3 | 0.00 | 0.00 | 0.00 | 81 | 1008.0 |
| 20260506002422 | 81 | 185 | 3.5 | 7.0 | 0.00 | 0.00 | 0.00 | 80 | 1007.9 |
| 20260506001917 | 81 | 184 | 4.3 | 6.1 | 0.00 | 0.00 | 0.00 | 80 | 1008.0 |
| 20260506001415 | 81 | 150 | 0.9 | 6.1 | 0.00 | 0.00 | 0.00 | 80 | 1008.2 |
| 20260506000912 | 81 | 216 | 0.0 | 5.2 | 0.00 | 0.00 | 0.00 | 80 | 1008.0 |
| 20260506000409 | 81 | 177 | 1.7 | 7.0 | 0.00 | 0.00 | 0.00 | 80 | 1008.1 |
| 20260505235906 | 81 | 201 | 1.7 | 5.2 | 0.00 | 0.00 | 0.00 | 80 | 1008.1 |
| 20260505235404 | 81 | 170 | 2.6 | 4.3 | 0.00 | 0.00 | 0.00 | 79 | 1008.1 |
| 20260505234900 | 81 | 110 | 2.6 | 6.1 | 0.00 | 0.00 | 0.00 | 79 | 1008.1 |
| 20260505234358 | 81 | 179 | 1.7 | 7.8 | 0.00 | 0.00 | 0.00 | 79 | 1008.1 |
| 20260505233854 | 82 | 164 | 5.2 | 7.0 | 0.00 | 0.00 | 0.00 | 79 | 1008.2 |
| 20260505233353 | 82 | 191 | 6.1 | 7.0 | 0.00 | 0.00 | 0.00 | 77 | 1008.0 |
| 20260505232850 | 82 | 170 | 2.6 | 5.2 | 0.00 | 0.00 | 0.00 | 78 | 1008.0 |
| 20260505232348 | 82 | 196 | 1.7 | 4.3 | 0.00 | 0.00 | 0.00 | 78 | 1008.1 |
| 20260505231844 | 81 | 118 | 2.6 | 7.8 | 0.00 | 0.00 | 0.00 | 78 | 1007.8 |
| 20260505231341 | 82 | 266 | 3.5 | 6.1 | 0.00 | 0.00 | 0.00 | 78 | 1007.7 |
| 20260505230840 | 82 | 198 | 2.6 | 8.7 | 0.00 | 0.00 | 0.00 | 78 | 1007.9 |
| 20260505230336 | 82 | 198 | 2.6 | 7.0 | 0.00 | 0.00 | 0.00 | 77 | 1007.9 |
| 20260505225833 | 82 | 186 | 4.3 | 7.0 | 0.00 | 0.00 | 0.00 | 77 | 1007.9 |
| 20260505225330 | 82 | 125 | 5.2 | 7.0 | 0.00 | 0.00 | 0.00 | 76 | 1007.8 |
| 20260505224825 | 83 | 199 | 3.5 | 7.0 | 0.00 | 0.00 | 0.00 | 75 | 1007.7 |
| 20260505224324 | 82 | 187 | 6.1 | 8.7 | 0.00 | 0.00 | 0.00 | 75 | 1007.7 |
| 20260505223820 | 82 | 130 | 3.5 | 7.0 | 0.00 | 0.00 | 0.00 | 75 | 1007.6 |
| 20260505223317 | 82 | 190 | 3.5 | 7.8 | 0.00 | 0.00 | 0.00 | 75 | 1007.6 |
| 20260505222813 | 82 | 227 | 7.0 | 8.7 | 0.00 | 0.00 | 0.00 | 75 | 1007.8 |
| 20260505222309 | 82 | 142 | 1.7 | 7.0 | 0.00 | 0.00 | 0.00 | 76 | 1007.7 |
| 20260505221807 | 82 | 137 | 1.7 | 11.3 | 0.00 | 0.00 | 0.00 | 77 | 1007.7 |
| 20260505221303 | 82 | 198 | 3.5 | 11.3 | 0.00 | 0.00 | 0.00 | 76 | 1007.6 |
| 20260505220800 | 83 | 196 | 4.3 | 7.8 | 0.00 | 0.00 | 0.00 | 74 | 1007.5 |
| 20260505220257 | 82 | 147 | 4.3 | 7.0 | 0.00 | 0.00 | 0.00 | 75 | 1007.9 |
| 20260505215755 | 83 | 146 | 1.7 | 12.2 | 0.00 | 0.00 | 0.00 | 75 | 1007.5 |
| 20260505215253 | 83 | 187 | 6.1 | 8.7 | 0.00 | 0.00 | 0.00 | 74 | 1007.8 |
| 20260505214750 | 83 | 199 | 7.0 | 8.7 | 0.00 | 0.00 | 0.00 | 74 | 1007.8 |
| 20260505214248 | 83 | 183 | 7.8 | 8.7 | 0.00 | 0.00 | 0.00 | 74 | 1007.8 |
| 20260505213745 | 82 | 183 | 2.6 | 6.1 | 0.00 | 0.00 | 0.00 | 76 | 1007.8 |
| 20260505213242 | 82 | 187 | 5.2 | 11.3 | 0.00 | 0.00 | 0.00 | 75 | 1007.8 |
| 20260505212738 | 83 | 193 | 5.2 | 8.7 | 0.00 | 0.00 | 0.00 | 74 | 1008.0 |
| 20260505212236 | 82 | 191 | 7.8 | 9.6 | 0.00 | 0.00 | 0.00 | 73 | 1008.3 |
| 20260505211732 | 83 | 179 | 4.3 | 11.3 | 0.00 | 0.00 | 0.00 | 75 | 1008.2 |
| 20260505211230 | 82 | 142 | 4.3 | 7.8 | 0.00 | 0.00 | 0.00 | 76 | 1008.3 |
| 20260505210726 | 82 | 106 | 3.5 | 7.0 | 0.00 | 0.00 | 0.00 | 75 | 1008.2 |
| 20260505210223 | 83 | 126 | 4.3 | 7.0 | 0.00 | 0.00 | 0.00 | 75 | 1008.4 |
| 20260505205720 | 83 | 200 | 7.8 | 9.6 | 0.00 | 0.00 | 0.00 | 74 | 1008.4 |
| 20260505205218 | 84 | 202 | 1.7 | 6.1 | 0.00 | 0.00 | 0.00 | 75 | 1008.4 |
| 20260505204715 | 83 | 135 | 3.5 | 7.0 | 0.00 | 0.00 | 0.00 | 75 | 1008.6 |
| 20260505204213 | 83 | 191 | 5.2 | 7.0 | 0.00 | 0.00 | 0.00 | 74 | 1008.4 |
| 20260505203710 | 82 | 217 | 5.2 | 6.1 | 0.00 | 0.00 | 0.00 | 73 | 1008.5 |
| 20260505203206 | 83 | 159 | 2.6 | 6.1 | 0.00 | 0.00 | 0.00 | 74 | 1008.7 |
| 20260505202702 | 83 | 167 | 3.5 | 9.6 | 0.00 | 0.00 | 0.00 | 73 | 1008.7 |
| 20260505202158 | 83 | 207 | 5.2 | 11.3 | 0.00 | 0.00 | 0.00 | 74 | 1008.9 |
| 20260505201655 | 83 | 155 | 3.5 | 7.0 | 0.00 | 0.00 | 0.00 | 75 | 1008.9 |
| 20260505201153 | 84 | 139 | 6.1 | 8.7 | 0.00 | 0.00 | 0.00 | 73 | 1009.0 |
| 20260505200651 | 82 | 214 | 4.3 | 6.1 | 0.00 | 0.00 | 0.00 | 75 | 1009.0 |
| 20260505200147 | 82 | 231 | 4.3 | 7.0 | 0.00 | 0.00 | 0.00 | 73 | 1009.2 |
| 20260505195643 | 83 | 143 | 2.6 | 5.2 | 0.00 | 0.00 | 0.00 | 72 | 1008.9 |
| 20260505195141 | 82 | 166 | 2.6 | 6.1 | 0.00 | 0.00 | 0.00 | 75 | 1009.0 |
| 20260505194638 | 83 | 191 | 4.3 | 7.0 | 0.00 | 0.00 | 0.00 | 72 | 1009.2 |
| 20260505194134 | 82 | 154 | 1.7 | 7.0 | 0.00 | 0.00 | 0.00 | 74 | 1009.2 |
| 20260505193630 | 82 | 206 | 3.5 | 7.0 | 0.00 | 0.00 | 0.00 | 75 | 1009.2 |
| 20260505193127 | 82 | 199 | 5.2 | 7.0 | 0.00 | 0.00 | 0.00 | 73 | 1009.2 |
| 20260505192626 | 82 | 178 | 4.3 | 8.7 | 0.00 | 0.00 | 0.00 | 74 | 1009.2 |
| 20260505192123 | 82 | 182 | 2.6 | 8.7 | 0.00 | 0.00 | 0.00 | 77 | 1009.4 |
| 20260505191622 | 81 | 155 | 3.5 | 5.2 | 0.00 | 0.00 | 0.00 | 74 | 1009.6 |
| 20260505191119 | 82 | 238 | 2.6 | 7.0 | 0.00 | 0.00 | 0.00 | 75 | 1009.4 |
| 20260505190615 | 81 | 239 | 3.5 | 5.2 | 0.00 | 0.00 | 0.00 | 76 | 1009.4 |
| 20260505190110 | 81 | 189 | 1.7 | 2.6 | 0.00 | 0.00 | 0.00 | 76 | 1009.6 |
| 20260505185607 | 80 | 195 | 4.3 | 6.1 | 0.00 | 0.00 | 0.00 | 75 | 1009.5 |
| 20260505185103 | 81 | 150 | 6.1 | 8.7 | 0.00 | 0.00 | 0.00 | 74 | 1009.7 |
| 20260505184600 | 81 | 199 | 5.2 | 7.8 | 0.00 | 0.00 | 0.00 | 73 | 1009.7 |
| 20260505184057 | 81 | 198 | 5.2 | 8.7 | 0.00 | 0.00 | 0.00 | 76 | 1009.7 |
| 20260505183553 | 80 | 161 | 2.6 | 9.6 | 0.00 | 0.00 | 0.00 | 77 | 1009.8 |
| 20260505183051 | 79 | 204 | 4.3 | 7.8 | 0.00 | 0.00 | 0.00 | 79 | 1010.0 |
| 20260505182547 | 79 | 185 | 3.5 | 6.1 | 0.00 | 0.00 | 0.00 | 78 | 1010.1 |
| 20260505182044 | 78 | 165 | 1.7 | 2.6 | 0.00 | 0.00 | 0.00 | 79 | 1010.1 |
| 20260505181541 | 78 | 205 | 8.7 | 11.3 | 0.00 | 0.00 | 0.00 | 78 | 1010.5 |
| 20260505181038 | 79 | 169 | 5.2 | 8.7 | 0.00 | 0.00 | 0.00 | 79 | 1010.1 |
| 20260505180534 | 78 | 108 | 3.5 | 5.2 | 0.00 | 0.00 | 0.00 | 79 | 1010.3 |
| 20260505180032 | 78 | 136 | 3.5 | 7.0 | 0.00 | 0.00 | 0.00 | 80 | 1010.5 |
| 20260505175532 | 78 | 192 | 5.2 | 11.3 | 0.00 | 0.00 | 0.00 | 80 | 1010.4 |
| 20260505175029 | 78 | 197 | 5.2 | 7.8 | 0.00 | 0.00 | 0.00 | 80 | 1010.7 |
| 20260505174526 | 77 | 217 | 5.2 | 6.1 | 0.00 | 0.00 | 0.00 | 79 | 1010.5 |
| 20260505174022 | 77 | 170 | 3.5 | 6.1 | 0.00 | 0.00 | 0.00 | 80 | 1010.7 |
| 20260505173519 | 77 | 210 | 2.6 | 7.8 | 0.00 | 0.00 | 0.00 | 82 | 1010.7 |
| 20260505173016 | 76 | 183 | 5.2 | 8.7 | 0.00 | 0.00 | 0.00 | 82 | 1010.8 |
| 20260505172514 | 76 | 205 | 3.5 | 6.1 | 0.00 | 0.00 | 0.00 | 83 | 1010.6 |
| 20260505172009 | 76 | 114 | 0.9 | 5.2 | 0.00 | 0.00 | 0.00 | 84 | 1010.6 |
| 20260505171505 | 76 | 249 | 3.5 | 6.1 | 0.00 | 0.00 | 0.00 | 84 | 1010.6 |
| 20260505171002 | 75 | 214 | 5.2 | 6.1 | 0.00 | 0.00 | 0.00 | 84 | 1010.7 |
| 20260505170459 | 76 | 191 | 6.1 | 7.8 | 0.00 | 0.00 | 0.00 | 84 | 1010.7 |
| 20260505165954 | 76 | 149 | 4.3 | 7.0 | 0.00 | 0.00 | 0.00 | 84 | 1010.8 |
| 20260505165450 | 75 | 154 | 1.7 | 5.2 | 0.00 | 0.00 | 0.00 | 86 | 1010.7 |
| 20260505164946 | 75 | 145 | 2.6 | 7.8 | 0.00 | 0.00 | 0.00 | 85 | 1010.6 |
| 20260505164442 | 75 | 136 | 0.9 | 5.2 | 0.00 | 0.00 | 0.00 | 87 | 1010.8 |
| 20260505163940 | 74 | 218 | 4.3 | 7.0 | 0.00 | 0.00 | 0.00 | 86 | 1010.8 |
| 20260505163439 | 74 | 136 | 1.7 | 4.3 | 0.00 | 0.00 | 0.00 | 87 | 1010.9 |
| 20260505162938 | 74 | 182 | 2.6 | 6.1 | 0.00 | 0.00 | 0.00 | 87 | 1010.8 |
| 20260505162433 | 74 | 189 | 3.5 | 7.0 | 0.00 | 0.00 | 0.00 | 86 | 1011.1 |
| 20260505161930 | 74 | 234 | 5.2 | 7.8 | 0.00 | 0.00 | 0.00 | 87 | 1011.0 |
| 20260505161426 | 74 | 165 | 3.5 | 7.0 | 0.00 | 0.00 | 0.00 | 87 | 1011.0 |
| 20260505160924 | 74 | 270 | 2.6 | 9.6 | 0.00 | 0.00 | 0.00 | 87 | 1010.9 |
| 20260505160422 | 73 | 167 | 2.6 | 6.1 | 0.00 | 0.00 | 0.00 | 88 | 1010.9 |
| 20260505152858 | 73 | 205 | 4.3 | 7.0 | 0.00 | 0.00 | 0.00 | 89 | 1010.9 |
| 20260505152355 | 73 | 181 | 0.9 | 5.2 | 0.00 | 0.00 | 0.00 | 89 | 1010.8 |
| 20260505151849 | 73 | 200 | 3.5 | 7.0 | 0.00 | 0.00 | 0.00 | 90 | 1010.9 |
| 20260505151346 | 72 | 189 | 0.9 | 2.6 | 0.00 | 0.00 | 0.00 | 90 | 1010.8 |
| 20260505150843 | 72 | 173 | 4.3 | 6.1 | 0.00 | 0.00 | 0.00 | 90 | 1010.8 |
| 20260505150340 | 72 | 143 | 2.6 | 7.0 | 0.00 | 0.00 | 0.00 | 90 | 1010.9 |
| 20260505140305 | 72 | 136 | 3.5 | 7.8 | 0.00 | 0.00 | 0.00 | 90 | 1010.3 |
| 20260505130228 | 71 | 135 | 4.3 | 7.0 | 0.00 | 0.00 | 0.00 | 91 | 1009.9 |
| 20260505124719 | 71 | 200 | 3.5 | 4.3 | 0.00 | 0.00 | 0.00 | 91 | 1009.7 |
| 20260505124215 | 71 | 158 | 0.9 | 5.2 | 0.00 | 0.00 | 0.00 | 91 | 1009.8 |
| 20260505123711 | 70 | 200 | 5.2 | 7.8 | 0.00 | 0.00 | 0.00 | 91 | 1009.4 |
| 20260505123209 | 70 | 203 | 3.5 | 5.2 | 0.00 | 0.00 | 0.00 | 92 | 1009.5 |
| 20260505122705 | 70 | 194 | 2.6 | 7.0 | 0.00 | 0.00 | 0.00 | 92 | 1009.3 |
| 20260505122202 | 70 | 194 | 6.1 | 7.0 | 0.00 | 0.00 | 0.00 | 92 | 1009.3 |
| 20260505121658 | 70 | 158 | 5.2 | 7.0 | 0.00 | 0.00 | 0.00 | 92 | 1009.3 |
| 20260505121155 | 70 | 147 | 1.7 | 7.8 | 0.00 | 0.00 | 0.00 | 92 | 1009.0 |
| 20260505120651 | 70 | 215 | 3.5 | 5.2 | 0.00 | 0.00 | 0.00 | 92 | 1008.9 |
| 20260505120147 | 70 | 176 | 2.6 | 7.8 | 0.00 | 0.00 | 0.00 | 92 | 1009.0 |
| 20260505115641 | 70 | 150 | 2.6 | 7.8 | 0.00 | 0.00 | 0.00 | 92 | 1009.2 |
| 20260505115139 | 70 | 135 | 0.9 | 5.2 | 0.00 | 0.00 | 0.00 | 92 | 1009.0 |
| 20260505114636 | 70 | 188 | 2.6 | 6.1 | 0.00 | 0.00 | 0.00 | 92 | 1009.0 |
| 20260505114132 | 70 | 190 | 4.3 | 6.1 | 0.00 | 0.00 | 0.00 | 91 | 1008.9 |
| 20260505113629 | 70 | 169 | 3.5 | 5.2 | 0.00 | 0.00 | 0.00 | 91 | 1009.0 |
| 20260505113126 | 70 | 210 | 2.6 | 7.0 | 0.00 | 0.00 | 0.00 | 91 | 1009.0 |
| 20260505112622 | 70 | 194 | 4.3 | 6.1 | 0.00 | 0.00 | 0.00 | 91 | 1009.0 |
| 20260505112120 | 70 | 161 | 5.2 | 7.8 | 0.00 | 0.00 | 0.00 | 91 | 1008.9 |
| 20260505111614 | 70 | 196 | 5.2 | 8.7 | 0.00 | 0.00 | 0.00 | 91 | 1009.0 |
| 20260505111110 | 70 | 183 | 2.6 | 6.1 | 0.00 | 0.00 | 0.00 | 91 | 1008.9 |
| 20260505110606 | 70 | 86 | 2.6 | 7.8 | 0.00 | 0.00 | 0.00 | 91 | 1008.9 |
| 20260505110104 | 70 | 218 | 4.3 | 6.1 | 0.00 | 0.00 | 0.00 | 91 | 1009.0 |
| 20260505102039 | 70 | 204 | 3.5 | 8.7 | 0.00 | 0.00 | 0.00 | 91 | 1009.0 |
| 20260505101537 | 70 | 123 | 0.9 | 6.1 | 0.00 | 0.00 | 0.00 | 91 | 1008.9 |
| 20260505101033 | 70 | 152 | 2.6 | 4.3 | 0.00 | 0.00 | 0.00 | 91 | 1008.9 |
| 20260505100531 | 70 | 195 | 7.0 | 8.7 | 0.00 | 0.00 | 0.00 | 91 | 1009.1 |
| 20260505100027 | 71 | 175 | 2.6 | 7.0 | 0.00 | 0.00 | 0.00 | 91 | 1009.1 |
| 20260505095524 | 71 | 169 | 3.5 | 6.1 | 0.00 | 0.00 | 0.00 | 91 | 1009.3 |
| 20260505095020 | 71 | 172 | 3.5 | 6.1 | 0.00 | 0.00 | 0.00 | 91 | 1009.2 |
| 20260505094517 | 71 | 172 | 2.6 | 7.8 | 0.00 | 0.00 | 0.00 | 91 | 1009.2 |
| 20260505094013 | 70 | 192 | 4.3 | 9.6 | 0.00 | 0.00 | 0.00 | 91 | 1009.2 |
| 20260505093509 | 70 | 172 | 2.6 | 7.8 | 0.00 | 0.00 | 0.00 | 91 | 1009.1 |
| 20260505093007 | 70 | 195 | 3.5 | 9.6 | 0.00 | 0.00 | 0.00 | 90 | 1009.2 |
| 20260505092504 | 70 | 136 | 6.1 | 9.6 | 0.00 | 0.00 | 0.00 | 90 | 1009.3 |
| 20260505092002 | 71 | 223 | 4.3 | 8.7 | 0.00 | 0.00 | 0.00 | 90 | 1009.4 |
| 20260505091459 | 71 | 146 | 4.3 | 7.0 | 0.00 | 0.00 | 0.00 | 90 | 1009.6 |
| 20260505090957 | 71 | 200 | 4.3 | 7.8 | 0.00 | 0.00 | 0.00 | 90 | 1009.4 |
| 20260505090455 | 71 | 267 | 6.1 | 8.7 | 0.00 | 0.00 | 0.00 | 90 | 1009.5 |
| 20260505085952 | 71 | 160 | 6.1 | 9.6 | 0.00 | 0.00 | 0.00 | 90 | 1009.5 |
| 20260505085450 | 71 | 187 | 4.3 | 7.8 | 0.00 | 0.00 | 0.00 | 90 | 1009.5 |
| 20260505084948 | 71 | 214 | 3.5 | 7.0 | 0.00 | 0.00 | 0.00 | 90 | 1009.4 |
| 20260505084446 | 71 | 140 | 1.7 | 8.7 | 0.00 | 0.00 | 0.00 | 90 | 1009.6 |
| 20260505083943 | 71 | 238 | 6.1 | 8.7 | 0.00 | 0.00 | 0.00 | 90 | 1009.5 |
| 20260505083440 | 71 | 147 | 1.7 | 8.7 | 0.00 | 0.00 | 0.00 | 90 | 1009.6 |
| 20260505082937 | 71 | 164 | 2.6 | 7.8 | 0.00 | 0.00 | 0.00 | 90 | 1009.5 |
| 20260505082432 | 71 | 164 | 1.7 | 7.0 | 0.00 | 0.00 | 0.00 | 90 | 1009.8 |
| 20260505081930 | 71 | 192 | 3.5 | 11.3 | 0.00 | 0.00 | 0.00 | 90 | 1010.0 |
| 20260505081427 | 71 | 210 | 7.0 | 9.6 | 0.00 | 0.00 | 0.00 | 90 | 1010.0 |
| 20260505080923 | 71 | 176 | 3.5 | 7.0 | 0.00 | 0.00 | 0.00 | 90 | 1009.8 |
| 20260505080419 | 71 | 185 | 1.7 | 8.7 | 0.00 | 0.00 | 0.00 | 89 | 1010.0 |
| 20260505075915 | 71 | 188 | 3.5 | 13.9 | 0.00 | 0.00 | 0.00 | 89 | 1010.0 |
| 20260505075412 | 71 | 211 | 4.3 | 11.3 | 0.00 | 0.00 | 0.00 | 89 | 1010.1 |
| 20260505074909 | 71 | 214 | 4.3 | 9.6 | 0.00 | 0.00 | 0.00 | 89 | 1009.9 |
| 20260505074406 | 71 | 201 | 4.3 | 8.7 | 0.00 | 0.00 | 0.00 | 89 | 1010.0 |
| 20260505073903 | 71 | 189 | 2.6 | 8.7 | 0.00 | 0.00 | 0.00 | 89 | 1010.1 |
| 20260505073401 | 71 | 203 | 4.3 | 7.8 | 0.00 | 0.00 | 0.00 | 89 | 1010.3 |
| 20260505072858 | 71 | 157 | 4.3 | 8.7 | 0.00 | 0.00 | 0.00 | 89 | 1010.1 |
| 20260505072354 | 71 | 216 | 5.2 | 11.3 | 0.00 | 0.00 | 0.00 | 89 | 1010.1 |
| 20260505071850 | 71 | 197 | 4.3 | 11.3 | 0.00 | 0.00 | 0.00 | 89 | 1010.3 |
| 20260505071347 | 71 | 179 | 2.6 | 7.0 | 0.00 | 0.00 | 0.00 | 90 | 1010.4 |
| 20260505070845 | 71 | 198 | 4.3 | 8.7 | 0.00 | 0.00 | 0.00 | 89 | 1010.5 |
| 20260505070341 | 71 | 193 | 4.3 | 7.8 | 0.00 | 0.00 | 0.00 | 89 | 1010.5 |
| 20260505065836 | 71 | 159 | 4.3 | 11.3 | 0.00 | 0.00 | 0.00 | 89 | 1010.6 |
| 20260505065334 | 71 | 174 | 5.2 | 7.8 | 0.00 | 0.00 | 0.00 | 89 | 1010.6 |
| 20260505064831 | 71 | 180 | 4.3 | 12.2 | 0.00 | 0.00 | 0.00 | 89 | 1010.7 |
| 20260505064327 | 70 | 195 | 6.1 | 8.7 | 0.00 | 0.00 | 0.00 | 90 | 1010.5 |
| 20260505063826 | 70 | 213 | 6.1 | 8.7 | 0.00 | 0.00 | 0.00 | 90 | 1010.7 |
| 20260505063321 | 71 | 188 | 6.1 | 9.6 | 0.00 | 0.00 | 0.00 | 90 | 1010.6 |
| 20260505062818 | 71 | 132 | 1.7 | 11.3 | 0.00 | 0.00 | 0.00 | 89 | 1010.6 |
| 20260505062316 | 71 | 175 | 7.8 | 9.6 | 0.00 | 0.00 | 0.00 | 89 | 1010.7 |
| 20260505061812 | 71 | 187 | 5.2 | 9.6 | 0.00 | 0.00 | 0.00 | 89 | 1010.8 |
| 20260505061311 | 71 | 155 | 2.6 | 12.2 | 0.00 | 0.00 | 0.00 | 90 | 1010.7 |
| 20260505060808 | 71 | 221 | 3.5 | 7.0 | 0.00 | 0.00 | 0.00 | 89 | 1010.9 |
| 20260505060304 | 71 | 195 | 5.2 | 7.0 | 0.00 | 0.00 | 0.00 | 89 | 1011.1 |
| 20260505055800 | 71 | 203 | 4.3 | 7.8 | 0.00 | 0.00 | 0.00 | 89 | 1011.0 |
| 20260505055256 | 71 | 191 | 4.3 | 6.1 | 0.00 | 0.00 | 0.00 | 90 | 1010.9 |
| 20260505054754 | 71 | 180 | 4.3 | 8.7 | 0.00 | 0.00 | 0.00 | 90 | 1010.9 |
| 20260505054251 | 70 | 213 | 4.3 | 7.0 | 0.00 | 0.00 | 0.00 | 90 | 1010.8 |
| 20260505053749 | 70 | 194 | 6.1 | 7.0 | 0.00 | 0.00 | 0.00 | 90 | 1011.0 |
| 20260505053246 | 70 | 181 | 5.2 | 7.0 | 0.00 | 0.00 | 0.00 | 90 | 1011.0 |
| 20260505052743 | 70 | 177 | 3.5 | 8.7 | 0.00 | 0.00 | 0.00 | 91 | 1011.2 |
| 20260505052240 | 70 | 129 | 1.7 | 6.1 | 0.00 | 0.00 | 0.00 | 91 | 1011.0 |
| 20260505051737 | 70 | 206 | 7.8 | 9.6 | 0.00 | 0.00 | 0.00 | 90 | 1010.8 |
| 20260505051235 | 70 | 207 | 4.3 | 8.7 | 0.00 | 0.00 | 0.00 | 90 | 1010.8 |
| 20260505050732 | 70 | 193 | 4.3 | 7.8 | 0.00 | 0.00 | 0.00 | 90 | 1011.0 |
| 20260505050231 | 70 | 180 | 2.6 | 6.1 | 0.00 | 0.00 | 0.00 | 90 | 1010.8 |
| 20260505041700 | 71 | 189 | 2.6 | 5.2 | 0.00 | 0.00 | 0.00 | 88 | 1011.0 |
| 20260505041158 | 72 | 185 | 1.7 | 2.6 | 0.00 | 0.00 | 0.00 | 87 | 1010.9 |
| 20260505040655 | 72 | 199 | 4.3 | 7.8 | 0.00 | 0.00 | 0.00 | 86 | 1010.9 |
| 20260505040152 | 72 | 188 | 3.5 | 5.2 | 0.00 | 0.00 | 0.00 | 86 | 1010.9 |